Manhattan, KS

6:16 AM CDT on September 20, 2017 (GMT -0500)
Manhattan Regional

Weather History for KMHK - September, 2014

Change the Weather History Date:

Sunday, September 28, 2014

  Actual Average Record
Temperature  
Mean Temperature 71 °F 62 °F  
Max Temperature 86 °F 76 °F 90 °F (1998)
Min Temperature 55 °F 49 °F 35 °F (1996)
Degree Days  
Heating Degree Days 0 5  
Month to date heating degree days 56 56  
Since 1 July heating degree days 57 59  
Cooling Degree Days 6 3  
Month to date cooling degree days 161 150  
Year to date cooling degree days 1539 1333  
Growing Degree Days 20 (Base 50)    
Moisture  
Dew Point 57 °F    
Average Humidity 67    
Maximum Humidity 93    
Minimum Humidity 40    
Precipitation  
Precipitation 0.00 in 0.09 in 0.24 in (2013)
Month to date precipitation 0.85 3.01  
Year to date precipitation 17.75 27.55  
Sea Level Pressure  
Sea Level Pressure 30.07 in    
Wind  
Wind Speed 3 mph (South)    
Max Wind Speed 15 mph    
Max Gust Speed 22 mph    
Visibility 10 miles    
Events      
T = Trace of Precipitation, MM = Missing Value Source: NWS Daily Summary

Daily Weather History Graph

Daily Weather History Graph

Search for Another Location

Airport or City:

Trip Planner

Search our weather history database for the weather conditions in past years. The results will help you decide how hot, cold, wet, or windy it might be!

Date:

Astronomy

Sep. 28, 2014 Rise Set
Actual Time 7:19 AM CDT 7:14 PM CDT
Civil Twilight 6:53 AM CDT 7:40 PM CDT
Nautical Twilight 6:22 AM CDT 8:11 PM CDT
Astronomical Twilight 5:50 AM CDT 8:42 PM CDT
Moon 11:33 AM CDT (9/28) 10:00 PM CDT (9/28)
Length of Visible Light 12h 47m
Length of Day
11h 54m
Waxing Crescent, 19% of the Moon is Illuminated
Sep 28
Waxing Crescent
Oct 1
First Quarter
Oct 8
Full
Oct 15
Last Quarter
Oct 23
New

Hourly Weather History & Observations

Time (CDT) Temp. Heat Index Dew Point Humidity Pressure Visibility Wind Dir Wind Speed Gust Speed Precip Events Conditions
12:52 AM 64.9 °F - 55.9 °F 73% 30.06 in 10.0 mi Calm Calm - N/A   Clear
1:52 AM 66.0 °F - 55.9 °F 70% 30.07 in 10.0 mi Calm Calm - N/A   Partly Cloudy
2:52 AM 63.0 °F - 55.9 °F 78% 30.07 in 10.0 mi Calm Calm - N/A   Partly Cloudy
3:52 AM 62.6 °F - 55.4 °F 77% 30.10 in 10.0 mi Calm Calm - N/A   Partly Cloudy
4:52 AM 59.0 °F - 55.9 °F 90% 30.08 in 10.0 mi Calm Calm - N/A   Clear
5:52 AM 57.0 °F - 55.0 °F 93% 30.09 in 9.0 mi Calm Calm - N/A   Scattered Clouds
6:52 AM 57.0 °F - 55.0 °F 93% 30.10 in 9.0 mi Calm Calm - N/A   Clear
7:52 AM 57.9 °F - 55.9 °F 93% 30.11 in 7.0 mi Calm Calm - N/A   Clear
8:52 AM 64.9 °F - 57.0 °F 75% 30.11 in 10.0 mi Calm Calm - N/A   Mostly Cloudy
9:52 AM 69.1 °F - 59.0 °F 70% 30.12 in 10.0 mi Calm Calm - N/A   Partly Cloudy
10:52 AM 79.0 °F - 59.0 °F 50% 30.11 in 10.0 mi SSW 8.1 mph - N/A   Mostly Cloudy
11:52 AM 81.0 °F 81.3 °F 59.0 °F 47% 30.10 in 10.0 mi South 9.2 mph - N/A   Overcast
12:52 PM 82.9 °F 82.8 °F 59.0 °F 44% 30.09 in 10.0 mi SSW 8.1 mph - N/A   Overcast
1:52 PM 82.9 °F 82.8 °F 59.0 °F 44% 30.06 in 10.0 mi South 5.8 mph - N/A   Scattered Clouds
2:52 PM 84.9 °F 84.4 °F 59.0 °F 41% 30.05 in 10.0 mi SSE 11.5 mph 17.3 mph N/A   Mostly Cloudy
3:52 PM 84.9 °F 84.2 °F 57.9 °F 40% 30.04 in 10.0 mi South 5.8 mph - N/A   Scattered Clouds
4:52 PM 84.0 °F 83.3 °F 57.0 °F 40% 30.03 in 10.0 mi SSW 6.9 mph - N/A   Partly Cloudy
5:52 PM 82.9 °F 82.1 °F 55.9 °F 39% 30.03 in 10.0 mi South 9.2 mph - N/A   Mostly Cloudy
6:52 PM 79.0 °F - 57.0 °F 47% 30.03 in 10.0 mi South 4.6 mph - N/A   Clear
7:52 PM 71.1 °F - 57.0 °F 61% 30.04 in 10.0 mi Calm Calm - N/A   Clear
8:52 PM 66.9 °F - 57.9 °F 73% 30.05 in 10.0 mi Calm Calm - N/A   Clear
9:52 PM 63.0 °F - 55.9 °F 78% 30.06 in 10.0 mi Calm Calm - N/A   Clear
10:52 PM 62.1 °F - 57.0 °F 84% 30.06 in 10.0 mi Calm Calm - N/A   Clear
11:52 PM 60.1 °F - 55.9 °F 86% 30.06 in 10.0 mi Calm Calm - N/A   Clear